General Aviation Weather

Text Reports

Enter one or more of the following location identifiers separated by a space:

Zip Code, Four-Character ICAO or Three-Character IATA airport codes.

METAR - Aviation Routine Weather Report
KADM - Ardmore, Oklahoma
Updated at 12:35 AM GMT on July 31, 2016 (7:35 PM CDT):
METAR KADM 310035Z AUTO 16006KT 10SM CLR 34/22 A2989 RMK AO2 LTG DSNT N T03430218
TAF - Terminal Area Forecast
KADM - Ardmore, Oklahoma
Updated at 12:35 AM GMT on July 31, 2016 (7:35 PM CDT):
No TAF is currently available for this location.
Decoded:
No decoded TAF is available.
PIREP - Pilot Weather Report
KADM - Ardmore, Oklahoma
Updated at 12:35 AM GMT on July 31, 2016 (7:35 PM CDT):
No PIREP is currently available for this location.
AIRMET - Airmens Meteorological Information
KADM - Ardmore, Oklahoma
Updated at 12:35 AM GMT on July 31, 2016 (7:35 PM CDT):
No AIRMET is currently available for this location.
SIGMET - Significant Meteorological Information
KADM - Ardmore, Oklahoma
Updated at 12:35 AM GMT on July 31, 2016 (7:35 PM CDT):
No SIGMET is currently available for this location.
NOTAM - Notice to Airmen
KADM - Ardmore, Oklahoma
Updated at 12:35 AM GMT on July 31, 2016 (7:35 PM CDT):
No NOTAM is currently available for this location.
Forecast Area
KADM - Ardmore, Oklahoma
Updated at 12:35 AM GMT on July 31, 2016 (7:35 PM CDT):
No NOTAM is currently available for this location.
Aviation Weather Maps